Williston, ND

5:12 PM CST on December 07, 2016 (GMT -0600)
Sloulin International

Weather History for KISN - September, 2013

Change the Weather History Date:

Tuesday, September 17, 2013

  Actual Average Record
Temperature  
Mean Temperature 72 °F 56 °F  
Max Temperature 87 °F 71 °F 96 °F (2000)
Min Temperature 56 °F 41 °F 18 °F (1902)
Degree Days  
Heating Degree Days 0 10  
Month to date heating degree days 17 112  
Since 1 July heating degree days 63 183  
Cooling Degree Days 7 1  
Month to date cooling degree days 75 24  
Year to date cooling degree days 402 453  
Growing Degree Days 22 (Base 50)    
Moisture  
Dew Point 56 °F    
Average Humidity 62    
Maximum Humidity 86    
Minimum Humidity 37    
Precipitation  
Precipitation 0.15 in 0.03 in 0.51 in (1977)
Month to date precipitation 1.47 0.61  
Year to date precipitation 17.36 11.73  
Snow  
Snow 0.00 in 0.00 in T in (1987)
Month to date snowfall 0.0 0.0  
Since 1 July snowfall 0.0 0.0  
Snow Depth 0.00 in    
Sea Level Pressure  
Sea Level Pressure 29.68 in    
Wind  
Wind Speed 5 mph (South)    
Max Wind Speed 25 mph    
Max Gust Speed 33 mph    
Visibility 9 miles    
Events Rain    
T = Trace of Precipitation, MM = Missing Value Source: NWS Daily Summary

Daily Weather History Graph

Daily Weather History Graph

Search for Another Location

Airport or City:

Trip Planner

Search our weather history database for the weather conditions in past years. The results will help you decide how hot, cold, wet, or windy it might be!

Date:

Astronomy

Sep. 17, 2013 Rise Set
Actual Time 7:34 AM CDT 8:02 PM CDT
Civil Twilight 7:03 AM CDT 8:33 PM CDT
Nautical Twilight 6:26 AM CDT 9:10 PM CDT
Astronomical Twilight 5:47 AM CDT 9:48 PM CDT
Moon 6:54 PM CDT (9/17) 5:25 AM CDT (9/17)
Length of Visible Light 13h 29m
Length of Day
12h 27m
Waxing Gibbous, 96% of the Moon is Illuminated
Sep 17
Waxing Gibbous
Sep 19
Full
Sep 26
Last Quarter
Oct 4
New
Oct 11
First Quarter

Hourly Weather History & Observations

Time (CDT) Temp. Heat Index Dew Point Humidity Pressure Visibility Wind Dir Wind Speed Gust Speed Precip Events Conditions
12:52 AM 63.0 °F - 53.1 °F 70% 29.78 in 10.0 mi South 8.1 mph - N/A   Clear
1:52 AM 62.1 °F - 53.1 °F 72% 29.76 in 10.0 mi SSE 9.2 mph - N/A   Clear
2:52 AM 61.0 °F - 53.1 °F 75% 29.75 in 10.0 mi South 5.8 mph - N/A   Clear
3:52 AM 60.1 °F - 53.1 °F 78% 29.74 in 10.0 mi South 4.6 mph - N/A   Clear
4:52 AM 59.0 °F - 53.1 °F 81% 29.73 in 10.0 mi South 5.8 mph - N/A   Clear
5:52 AM 57.9 °F - 53.1 °F 84% 29.72 in 10.0 mi South 5.8 mph - N/A   Clear
6:52 AM 57.9 °F - 53.1 °F 84% 29.72 in 10.0 mi South 4.6 mph - N/A   Clear
7:52 AM 57.0 °F - 52.0 °F 83% 29.73 in 10.0 mi Calm Calm - N/A   Clear
8:52 AM 60.1 °F - 53.1 °F 78% 29.73 in 10.0 mi South 5.8 mph - N/A   Clear
9:52 AM 63.0 °F - 55.0 °F 75% 29.72 in 10.0 mi Variable 6.9 mph - N/A   Clear
10:52 AM 66.9 °F - 55.9 °F 68% 29.71 in 10.0 mi Variable 4.6 mph - N/A   Clear
11:52 AM 72.0 °F - 57.0 °F 59% 29.70 in 10.0 mi Calm Calm - N/A   Clear
12:52 PM 75.0 °F - 57.0 °F 53% 29.68 in 10.0 mi Calm Calm - N/A   Clear
1:52 PM 78.1 °F - 57.0 °F 48% 29.67 in 10.0 mi Calm Calm - N/A   Clear
2:52 PM 82.0 °F 82.0 °F 57.9 °F 44% 29.65 in 10.0 mi South 3.5 mph - N/A   Clear
3:52 PM 82.9 °F 82.1 °F 55.9 °F 39% 29.64 in 10.0 mi South 3.5 mph - N/A   Clear
4:52 PM 84.9 °F 83.6 °F 55.0 °F 36% 29.61 in 10.0 mi Calm Calm - N/A   Clear
5:52 PM 84.9 °F 83.9 °F 57.0 °F 38% 29.62 in 10.0 mi NW 3.5 mph - N/A   Clear
6:52 PM 82.9 °F 83.3 °F 61.0 °F 47% 29.60 in 10.0 mi North 4.6 mph - N/A   Clear
7:52 PM 75.9 °F - 60.1 °F 58% 29.61 in 9.0 mi Calm Calm - N/A   Clear
8:52 PM 72.0 °F - 59.0 °F 64% 29.60 in 9.0 mi NNE 4.6 mph - N/A   Clear
9:52 PM 69.1 °F - 57.0 °F 65% 29.59 in 10.0 mi North 6.9 mph - N/A   Clear
10:52 PM 71.1 °F - 60.1 °F 68% 29.60 in 10.0 mi NNE 4.6 mph - N/A   Clear
11:52 PM 72.0 °F - 61.0 °F 68% 29.62 in 3.0 mi SSW 13.8 mph 26.5 mph 0.00 in Rain Light Rain
11:57 PM 69.8 °F - 60.8 °F 73% 29.67 in 1.8 mi SSW 24.2 mph 33.4 mph 0.02 in Rain Heavy Rain